Terug naar catalogus

DMSP 5D-2 F13 DEB

ActiefSSO
NORAD 40471·DEBRIS·🇺🇸 United States

Gelanceerd Mar 24, 1995 vanaf Vandenberg Space Force Base

Loading…

Volgende Passages (komende 24 uur)

TLE

VersSource: Space-Track

Epoch: Sep 13, 2026, 07:50 UTC

1 40471U 95015BP  26256.32663188  .00002102  00000-0  83950-3 0  9997
2 40471  98.8801 287.5352 0021517  66.6585 293.6857 14.29442369594817

Volg DMSP 5D-2 F13 DEB in realtime met AllMySat

Download on the App Store